Weather History for Laramie, WY

Change the Weather History Date:

Friday, March 29, 2013

  Actual Average Record
Temperature  
Mean Temperature 41 °F 34 °F  
Max Temperature 56 °F 46 °F 67 °F (1978)
Min Temperature 26 °F 21 °F -3 °F (1961)
Degree Days  
Heating Degree Days 24 31  
Month to date heating degree days 1009 997  
Since 1 July heating degree days 6913 7173  
Cooling Degree Days 0 0  
Month to date cooling degree days 0 0  
Year to date cooling degree days 0 0  
Moisture  
Dew Point 26 °F    
Average Humidity 57    
Maximum Humidity 85    
Minimum Humidity 29    
Precipitation  
Precipitation T in 0.03 in 0.22 in (1998)
Month to date precipitation 0.20 0.54  
Year to date precipitation 0.77 1.15  
Sea Level Pressure  
Sea Level Pressure 30.04 in    
Wind  
Wind Speed 12 mph (West)    
Max Wind Speed 33 mph    
Max Gust Speed 45 mph    
Visibility 10 miles    
Events Rain    
T = Trace of Precipitation, MM = Missing Value Source: NWS Daily Summary

Daily Weather History Graph

Daily Weather History Graph

Search for Another Location

Airport:

Trip Planner

Search our weather history database for the weather conditions in past years. The results will help you decide how hot, cold, wet, or windy it might be!

Date:

Astronomy

Mar. 29, 2013 Rise Set
Actual Time 6:50 AM MDT 7:24 PM MDT
Civil Twilight 6:22 AM MDT 7:52 PM MDT
Nautical Twilight 5:49 AM MDT 8:25 PM MDT
Astronomical Twilight 5:16 AM MDT 8:59 PM MDT
Moon 10:30 PM MDT (3/29) 7:59 AM MDT (3/29)
Length of Visible Light 13h 30m
Length of Day
12h 34m
Waning Gibbous, 93% of the Moon is Illuminated
Mar 29
Waning Gibbous
Apr 2
Last Quarter
Apr 10
New
Apr 18
First Quarter
Apr 25
Full

Hourly Weather History & Observations

Time (MDT) Temp. Windchill Dew Point Humidity Pressure Visibility Wind Dir Wind Speed Gust Speed Precip Events Conditions
12:53 AM 34.0 °F 27.2 °F 23.0 °F 64% 30.01 in - East 8.1 mph - N/A   Clear
1:53 AM 30.9 °F 27.5 °F 21.9 °F 69% 30.03 in - ESE 3.5 mph - N/A   Scattered Clouds
2:53 AM 30.0 °F 22.4 °F 23.0 °F 75% 30.02 in - WSW 8.1 mph - N/A   Scattered Clouds
3:53 AM 28.9 °F 23.9 °F 23.0 °F 78% 30.01 in - East 4.6 mph - N/A   Mostly Cloudy
4:53 AM 28.0 °F 20.8 °F 23.0 °F 81% 30.03 in - SSE 6.9 mph - N/A   Mostly Cloudy
5:53 AM 28.9 °F - 24.1 °F 82% 30.05 in - Calm Calm - N/A   Overcast
6:53 AM 30.9 °F 25.2 °F 25.0 °F 79% 30.06 in - SSE 5.8 mph - N/A   Overcast
7:53 AM 30.0 °F 22.4 °F 24.1 °F 79% 30.09 in - SSE 8.1 mph - N/A   Scattered Clouds
8:53 AM 36.0 °F 32.1 °F 27.0 °F 70% 30.08 in - ESE 4.6 mph - N/A   Partly Cloudy
9:53 AM 48.9 °F - 27.0 °F 43% 30.00 in 10.0 mi WSW 9.2 mph - N/A   Clear
10:53 AM 48.9 °F - 24.1 °F 38% 30.01 in 10.0 mi WNW 11.5 mph - N/A   Mostly Cloudy
11:53 AM 54.0 °F - 25.0 °F 33% 29.99 in 10.0 mi West 23.0 mph 32.2 mph N/A   Clear
12:53 PM 55.0 °F - 24.1 °F 30% 29.98 in 10.0 mi West 23.0 mph 31.1 mph N/A   Mostly Cloudy
1:53 PM 54.0 °F - 23.0 °F 30% 29.99 in 10.0 mi West 20.7 mph 29.9 mph N/A   Scattered Clouds
2:53 PM 52.0 °F - 23.0 °F 32% 30.00 in 10.0 mi West 23.0 mph - N/A   Mostly Cloudy
3:20 PM 46.4 °F 37.7 °F 32.0 °F 57% 30.12 in 10.0 mi NW 26.5 mph 35.7 mph N/A   Partly Cloudy
3:53 PM 51.1 °F - 28.9 °F 43% 30.02 in 10.0 mi NW 21.9 mph - N/A   Clear
4:13 PM 51.8 °F - 28.4 °F 41% 30.11 in 10.0 mi WSW 15.0 mph 21.9 mph N/A   Partly Cloudy
4:53 PM 50.0 °F - 28.0 °F 43% 30.02 in 10.0 mi NW 10.4 mph - N/A   Mostly Cloudy
5:45 PM 46.4 °F 37.4 °F 28.4 °F 50% 30.10 in 10.0 mi WNW 28.8 mph 44.9 mph N/A   Squalls
5:53 PM 46.9 °F - 26.1 °F 44% 30.04 in 10.0 mi WNW 25.3 mph 34.5 mph N/A   Overcast
6:53 PM 46.9 °F - 23.0 °F 39% 30.04 in 10.0 mi WNW 28.8 mph 32.2 mph N/A   Mostly Cloudy
7:53 PM 43.0 °F 34.8 °F 28.9 °F 58% 30.06 in 10.0 mi West 18.4 mph 33.4 mph 0.00 in Rain Light Rain
8:53 PM 37.9 °F 30.5 °F 28.9 °F 70% 30.07 in 10.0 mi WSW 11.5 mph - 0.00 in   Scattered Clouds
9:53 PM 36.0 °F 29.0 °F 28.0 °F 73% 30.02 in - West 9.2 mph - N/A   Mostly Cloudy
10:53 PM 35.1 °F 27.9 °F 27.0 °F 72% 30.05 in - North 9.2 mph - N/A   Clear
11:53 PM 30.9 °F 27.5 °F 26.1 °F 82% 30.04 in - SE 3.5 mph - N/A   Clear